This is the latest recevied weather packets stored in our database for station/object LU3HGB-WX. If no packets are shown the sender has not sent any weather packets the latest 10 day(s).
| Time | Temp. | Humidity | Pressure | Rain* | Wind** | Luminosity | Snow |
|---|---|---|---|---|---|---|---|
| 1777565860 | 21.11° C | 39% | 1013 hPa | 0 mm | - | 716 W/m² | - |
| 1777565560 | 21.11° C | 42% | 1013 hPa | 0 mm | - | 715 W/m² | - |
| 1777565259 | 20.56° C | 42% | 1013 hPa | 0 mm | - | 714 W/m² | - |
| 1777564960 | 20.56° C | 42% | 1013 hPa | 0 mm | - | 712 W/m² | - |
| 1777564660 | 20.56° C | 41% | 1013 hPa | 0 mm | - | 709 W/m² | - |
| 1777564359 | 20.56° C | 41% | 1013 hPa | 0 mm | - | 705 W/m² | - |
| 1777564059 | 20° C | 42% | 1013 hPa | 0 mm | - | 703 W/m² | - |
| 1777563759 | 20° C | 45% | 1013 hPa | 0 mm | - | 698 W/m² | - |
| 1777563460 | 19.44° C | 39% | 1013 hPa | 0 mm | - | 694 W/m² | - |
| 1777563160 | 19.44° C | 41% | 1013 hPa | 0 mm | - | 690 W/m² | - |
| 1777562859 | 19.44° C | 41% | 1013 hPa | 0 mm | - | 685 W/m² | - |
| 1777562567 | 18.89° C | 43% | 1014 hPa | 0 mm | - | 677 W/m² | - |
| 1777562260 | 18.89° C | 42% | 1014 hPa | 0 mm | - | 669 W/m² | - |
| 1777561960 | 18.89° C | 42% | 1014 hPa | 0 mm | - | 662 W/m² | - |
| 1777561660 | 18.33° C | 41% | 1014 hPa | 0 mm | - | 653 W/m² | - |
| 1777561359 | 18.33° C | 46% | 1014 hPa | 0 mm | - | 646 W/m² | - |
| 1777561059 | 17.78° C | 50% | 1014 hPa | 0 mm | - | 636 W/m² | - |
| 1777560761 | 17.78° C | 52% | 1014 hPa | 0 mm | - | 626 W/m² | - |
| 1777560461 | 17.22° C | 52% | 1014 hPa | 0 mm | - | 621 W/m² | - |
| 1777560160 | 17.22° C | 54% | 1014 hPa | 0 mm | - | 609 W/m² | - |
| 1777559861 | 17.22° C | 51% | 1014 hPa | 0 mm | - | 595 W/m² | - |
| 1777559560 | 16.67° C | 52% | 1014 hPa | 0 mm | - | 586 W/m² | - |
| 1777559260 | 16.67° C | 57% | 1015 hPa | 0 mm | - | 573 W/m² | - |
| 1777558960 | 16.11° C | 53% | 1015 hPa | 0 mm | - | 561 W/m² | - |
| 1777558660 | 16.11° C | 54% | 1015 hPa | 0 mm | - | 548 W/m² | - |
* Rain latest hour (hover to see other rain measurements)
** Current wind speed in m/s (hover to see current wind gust speed)